Regional Weather Roundup
Issued by NWS Jackson, KY

Home | Current Version | Previous Version | Text Only | Print | Product List | Glossary On
Versions: 1 2 3 4 5 6 7 8 9 10 11 12 13 14 15 16 17 18 19 20 21 22 23 24 25 26 27 28 29 30 31 32 33 34 35 36 37 38 39 40 41 42 43 44 45 46 47 48 49 50
000
ASUS43 KJKL 210111
RWRJKL

EAST KENTUCKY HOURLY WEATHER ROUNDUP
NATIONAL WEATHER SERVICE JACKSON KY
900 PM EDT MON OCT 20 2014

NOTE: "FAIR" INDICATES FEW OR NO CLOUDS BELOW 12,000 FEET WITH
NO SIGNIFICANT WEATHER AND/OR OBSTRUCTIONS TO VISIBILITY.

* THESE REPORTS ARE NOT UNDER NWS QUALITY CONTROL AND MAY NOT
  REPORT WEATHER SUCH AS PRECIPITATION AND FOG.

KYZ079-080-083-085-087-088-110-112-115-119-120-210200
...EASTERN KENTUCKY...

CITY           SKY/WX    TMP DP  RH WIND       PRES   REMARKS
JACKSON        CLEAR     52  49  89 CALM      29.96R
LONDON         PTCLDY    58  47  66 SW5       29.99R
SOMERSET*      PTCLDY    52  46  82 CALM      30.00R
MONTICELLO*    CLEAR     47  45  93 CALM      30.01R
MIDDLESBORO*   CLOUDY    52  50  93 CALM      30.00R
HARLAN APT*    PTCLDY    54  46  76 CALM      29.99R
HAZARD APT*    PTCLDY    54  54 100 CALM      29.97R FOG
PIKEVILLE APT* CLOUDY    54  50  87 CALM      29.96R
BIG SANDY*     CLOUDY    55  51  86 CALM      29.96R
MOREHEAD APT*  MOCLDY    54  46  76 S5        29.96S
$$

KYZ035-036-041-042-044-050-067-078-099-210200
...CENTRAL KENTUCKY...

CITY           SKY/WX    TMP DP  RH WIND       PRES   REMARKS
MT STERLING*   CLEAR     54  46  76 W8        29.96S
FLEMING/MASON* MOCLDY    54  46  76 SW10      29.92F
DANVILLE*      CLEAR     52  45  76 SW5       29.98S
RICHMOND*      CLEAR     55  45  67 SW8       29.96S
LEXINGTON      PTCLDY    59  48  67 SW10      29.94S
FRANKFORT      PTCLDY    58  49  72 SW7       29.92S
$$

KYZ091>093-OHZ055-061-077-WVZ005-015-034-035-042-210200
...SOUTHERN OHIO/WEST VIRGINIA...

CITY           SKY/WX    TMP DP  RH WIND       PRES   REMARKS
COVINGTON      PTCLDY    58  50  75 SW7       29.89S
COLUMBUS       CLOUDY    52  50  93 S5        29.87S
DAYTON         MOCLDY    53  51  93 W6        29.88S
WILMINGTON     MOCLDY    52  47  83 MISG      29.89R THUNDER
HUNTINGTON     MOCLDY    53  48  83 S6        29.92S
CHARLESTON     CLOUDY    53  50  89 CALM      29.93S
PINEVILLE*     CLOUDY    50  50 100 MISG      30.01S
BECKLEY        MOCLDY    52  43  71 SW8       29.96F
BLUEFIELD      MOCLDY    52  41  66 W6        29.99S
$$

VAZ002-007-008-TNZ017-027-036-066-071-210200
...SOUTHWEST VIRGINIA/EAST TENNESSEE...

CITY           SKY/WX    TMP DP  RH WIND       PRES   REMARKS
WISE*          CLOUDY    54  45  71 SW13      30.00S
JONESVILLE*    CLOUDY    54  50  87 CALM      30.01S
ABINGDON*      CLOUDY    54  49  83 CALM      30.00R
BRISTOL        CLOUDY    55  49  80 CALM      29.99S
KNOXVILLE      PTCLDY    57  50  77 SW6       29.99R
OAK RIDGE      CLEAR     57  53  86 SW3       30.01R
CROSSVILLE     CLEAR     52  46  80 W5        30.03R
NASHVILLE      CLEAR     56  49  77 S5        30.00S
$$

...KEY TO REMARKS...
VSB - VISIBILITY IN MILES
WCI - WIND CHILL INDEX
HX  - HEAT INDEX

$$



USA.gov is the U.S. government's official web portal to all federal, state and local government web resources and services.